Reflectivity
-20 -20 -20 28 21 -17 -17 -20 -20 -20 -5 11 13 -20 -20 -18 -20 -20 -20 32 -20 -20 -20 -20 -20 -20 -20 -2 8 8 -14 -20 -20 -17 -1 6 -11 -20 -20 -20 -20 -7 -20 -20 -20 -20 -20 -20 -20
-20 0 -6 27 -14 -20 -20 -20 -20 -20 -20 -20 -20 -20 -20 -20 -20 -20 -20 -20 -20 -20 -20 -20 -20 -20 -20 -20 -20 -9 -20 -3 -20 -20 -20 -18 8 -7 -8 -16 -20 -20 -20 -20 -20 -20 -20 -20 -20
-20 -4 -3 37 7 -20 -20 -20 -20 -20 -20 -20 -20 -20 -20 -20 -20 -20 -20 -20 -7 -20 -20 -20 -20 -20 -20 -20 -20 -20 -18 2 -17 -4 -20 -18 -20 -20 -7 2 -18 -20 -13 -13 -18 -20 -20 -20 -20
-20 29 -20 7 -20 -20 -20 -20 -20 -20 -20 -20 -20 -20 -20 -20 -20 -20 -20 -20 -20 -20 -20 -20 -6 -20 7 -20 -20 -20 -17 -4 -19 -20 -10 -20 -20 -20 -20 -20 -20 -20 -20 -20 -18 -20 -20 -20 -20
-20 -20 1 14 -20 -20 -20 -20 -20 -20 -20 -20 -20 -20 -20 -20 -20 -20 11 -20 -20 -20 -20 -20 -20 -4 -20 -20 -20 -20 -13 -20 -20 -16 -20 -20 -8 -8 -20 -20 3 -15 -14 -4 -20 -20 -20 -20 -20
-12 0 32 14 -12 -15 -20 -20 -20 -20 -20 -20 -20 -20 -20 -20 -20 -17 4 -20 -20 -20 -20 -20 -20 -14 -20 4 -20 -19 -19 -20 -20 -12 -19 -6 -20 6 -20 -14 8 -14 -20 -20 -20 -20 -20 -20 -20
-19 7 27 -3 -6 -20 -20 -20 -20 -20 -19 -20 -20 -20 -20 -20 -20 2 16 -13 -20 -20 -20 -20 -20 -1 -17 2 -7 -5 -20 -20 -20 -14 -13 -20 -20 -4 -20 -1 6 -4 -20 -20 -20 -20 -20 -20 -20
-4 26 32 -7 7 -20 -20 -19 -20 -20 -20 -20 -20 -20 -20 -20 -19 -18 -20 -20 -20 -20 -20 -20 -20 -20 -20 -20 -20 -20 -20 -20 -20 -20 -20 -20 -20 -20 -20 -20 -20 -20 -20 -20 -20 -20 -20 -20 -20
2 -0 24 29 6 -20 -17 29 -20 -20 -20 -20 -20 -20 -20 -20 4 -20 -20 -20 -20 -20 -20 -20 -20 -20 -20 -20 -20 -20 -20 -20 -18 -20 -20 -12 -20 -20 -20 -20 -20 -20 -20 -20 -20 -20 -20 -20 -20
29 41 34 24 -2 -16 -18 10 -20 -20 -3 -16 -20 -20 -20 -20 -20 -20 -13 -20 -20 -20 -20 -20 -20 -20 -20 -20 -20 -20 -20 -13 -15 -18 -20 -20 -20 6 -20 -7 12 -20 -20 -20 -20 -20 -20 -20 -20
31 40 31 23 4 -5 -5 -20 -20 6 -13 -15 -20 -20 -20 -20 -20 -20 -11 -20 -20 -20 -20 -20 -20 -20 -20 -20 -20 -20 -20 -20 -19 -19 -20 -10 -11 -20 -20 -16 -20 -20 -20 -19 -20 -20 -20 -20 -20
9 27 33 31 34 20 2 -20 -20 -20 -20 -20 -20 -20 -20 -20 -20 -20 -7 3 -20 -20 -20 -20 -20 -20 -20 -20 -20 -20 -20 -20 -20 -20 -20 -20 21 14 -3 10 6 5 -20 -20 -11 -20 -14 -20 -20
-20 1 26 36 25 29 -11 -20 -20 -3 -20 -20 -20 -20 -20 -20 -20 -20 -10 -20 -20 -20 -20 -20 -20 -20 -19 -20 -20 -20 -13 -20 -20 -20 -20 -20 0 3 7 21 11 -20 -20 -17 -20 -20 -20 -20 -20
-20 15 -4 31 38 36 -9 16 14 1 -14 -20 -20 -20 -11 -11 3 -20 -18 -20 -20 -20 -20 -20 -20 -20 -19 -20 -20 -20 -20 -20 2 14 -20 -20 -1 -6 -11 -14 -20 -20 -19 -20 -20 -20 -20 -20 -20
26 26 -17 9 29 29 26 -20 -20 -20 -20 -20 -20 -20 13 -4 -20 -20 -20 -20 -20 -20 -20 -20 -20 -11 -11 -20 -20 -20 -20 -20 -20 -20 -20 -20 -18 -20 -20 -20 -20 -5 -20 -20 -20 -20 -20 -20 -20
-20 -20 30 30 41 30 32 -9 -20 -20 6 -19 -20 -20 -1 -20 -7 -20 -20 -20 -20 -20 -20 -20 -20 -20 -20 -9 -20 -20 -20 -20 -20 -20 -20 -6 4 -13 -20 -20 -20 -15 -18 15 -20 -20 -20 -20 -20
6 26 30 33 29 36 27 -3 4 -19 -20 -20 -20 -20 10 -20 -20 -20 -20 -20 -20 -20 -20 -20 -20 -20 -20 -20 -20 4 -20 -20 -20 -20 -20 -20 -20 -20 -20 -20 -20 -20 -20 -20 -20 -20 -20 -20 -20
-20 30 -4 32 34 42 17 -7 25 -19 19 -18 -20 -20 5 -20 -16 -20 -20 -20 -20 -20 -20 -20 -20 -20 -20 -20 -20 -20 -12 -20 -20 -20 -20 -20 -20 -20 -20 -11 -20 -13 -20 -20 -20 -20 -15 -20 -20
-20 -20 15 27 37 44 34 -5 -20 -19 2 -20 -20 -20 12 -20 -20 -16 -20 -20 -20 -20 -20 -20 -20 -20 -20 -20 -20 -20 -20 -20 -20 -20 -20 -20 -20 -20 -11 0 -0 8 -20 -20 -20 -20 14 -18 -20
-8 21 4 17 11 20 36 23 -6 33 22 -16 9 -2 23 -19 -20 -20 -20 -20 -20 -20 -20 -9 -20 -20 -20 -20 -20 -20 15 -20 -20 -20 -20 -20 -20 -20 -18 -18 -20 -20 -20 -20 -20 -20 -20 -20 -20
-6 23 -20 8 35 14 34 38 5 -0 27 -13 -20 -17 -20 -20 -11 -20 -20 -20 -20 -20 -20 -20 -20 -20 -20 -20 -20 -20 -20 -20 -20 -20 -20 -20 -20 -20 -19 -12 -9 -20 -20 -20 -20 31 -20 -20 -20
5 21 5 21 -0 9 34 36 15 27 24 -0 -20 -20 -20 -20 -18 -20 -20 -20 -20 -20 -20 -20 -20 -20 -20 -20 -13 -20 -12 -20 -20 -20 -20 -20 -20 -20 -18 -20 -20 -20 -20 -20 -16 -20 -10 -20 -20
-17 29 3 -20 -13 21 39 35 34 15 24 2 -3 -9 -15 -20 -20 -20 -20 -20 -20 -20 -20 -20 -20 -20 -20 -20 -20 -20 -20 -20 -20 -20 -3 -20 -20 -20 -20 -20 -20 -20 -20 -20 -20 -20 -20 -20 -20
-20 19 22 -15 -9 27 33 35 22 7 20 -10 -0 -20 -11 -20 -20 -20 -20 -20 -20 -20 -20 -20 -20 -20 -20 -20 -20 -20 -20 -8 -1 3 -20 -20 -20 -20 -20 -20 -20 -20 -20 -20 -20 -20 -20 -20 -4
-20 -9 19 8 2 18 19 17 39 7 3 -17 -18 -20 7 -15 -13 -16 -17 -20 -20 -20 -20 -20 -20 -20 -20 -20 -20 -20 -20 -15 -16 -20 -20 -20 -20 -20 -20 -20 -20 -20 -20 -20 -20 -20 -20 -20 -20
-20 -20 -1 20 -14 17 10 21 31 23 -6 -20 -20 -20 -14 -17 -20 -20 11 -20 -20 -20 -20 -20 -20 -20 -20 -20 -20 -20 -20 -20 -19 -20 19 9 -0 -4 -20 -20 -20 -20 -20 -20 -20 -20 -20 -20 -20
-20 -20 -20 -20 -19 17 27 29 27 2 -4 -14 -5 -4 -12 5 1 -20 -20 -18 -20 5 -18 -20 -20 -20 -20 -20 -20 -20 -20 -20 -20 -20 -20 24 19 6 -20 -0 -20 -20 -20 -20 -20 -20 -20 -20 -20
-20 -17 -20 -20 -9 9 10 38 33 1 -20 -20 -13 -18 15 23 -7 -16 -20 -4 -10 42 32 9 -20 -18 -20 -20 -20 -20 -20 -20 -20 -20 -20 -20 -20 8 2 -17 -20 -20 -20 -20 -20 -20 -20 -20 -20
-20 -20 -20 -20 -20 -9 8 27 16 23 -20 -20 -16 -18 12 10 34 -5 -19 13 35 44 31 -20 -10 9 -20 -20 -20 9 -20 -20 -20 -20 -20 -20 -20 -19 -20 -20 19 -20 -20 -20 -20 -20 -20 -20 -20
-20 -20 -20 -20 -20 -20 -20 29 15 4 7 -20 -11 9 14 1 1 -20 15 -6 14 21 -12 8 23 19 -11 -17 36 12 16 -7 29 -20 -20 -20 -20 -20 -20 -20 -20 -20 -20 -20 -20 -20 -11 -20 -20
Wind_Speed
2 6 4 1 3 0 4 6 11 14 13 17 17 14 17 9 9 10 12 17 18 14 10 11 11 11 10 10 9 11 11 11 12 13 14 14 15 15 16 17 17 16 15 16 15 14 14 14 13
3 8 4 4 3 3 4 10 18 17 14 20 23 22 24 22 18 20 16 19 19 16 10 8 10 11 11 11 10 11 11 11 12 13 13 13 14 15 16 16 16 16 14 14 14 12 12 12 11
3 5 4 3 3 3 5 12 11 12 12 15 12 14 10 20 13 12 16 20 16 14 11 10 13 12 12 11 12 11 11 12 12 14 13 14 14 14 15 15 16 15 13 13 13 11 10 10 9
3 2 4 3 3 6 11 12 18 14 8 18 15 15 22 20 12 15 21 22 18 14 10 13 15 14 14 13 12 12 12 12 13 13 14 14 14 14 13 13 13 12 12 12 12 10 9 7 11
3 1 3 2 3 7 14 11 13 15 12 18 22 16 12 15 21 16 16 19 17 13 11 11 13 15 13 14 13 12 13 13 14 13 14 14 13 13 12 13 13 12 13 12 11 9 8 6 8
3 2 2 4 3 14 12 7 13 13 16 23 23 18 7 15 18 11 14 15 17 13 12 11 14 15 15 15 14 13 13 13 14 14 14 13 12 12 13 14 14 13 12 11 10 8 6 5 4
5 3 3 5 14 13 13 9 13 13 19 19 17 13 6 15 16 13 18 13 18 15 12 10 8 13 14 14 14 14 14 13 13 13 14 13 13 14 14 13 12 13 11 10 9 7 6 3 2
5 3 1 2 10 10 9 9 13 20 11 25 20 10 7 16 16 17 14 11 17 14 12 11 8 7 6 6 14 14 13 13 13 13 14 13 14 14 14 11 11 11 10 9 6 3 2 2 3
4 4 2 5 8 10 16 9 6 11 15 15 9 16 12 18 16 17 9 12 13 12 12 10 10 6 7 6 8 11 12 12 12 11 13 11 5 6 8 9 9 9 7 8 7 5 4 5 5
4 3 7 8 6 4 14 11 10 9 11 19 19 16 17 14 20 18 16 14 12 12 8 9 10 9 8 7 6 5 5 4 5 6 7 3 4 4 6 6 10 7 5 3 7 10 6 6 3
4 3 6 7 16 15 9 12 5 13 9 23 22 19 17 17 16 14 13 21 14 12 10 10 9 7 7 6 4 3 3 3 4 5 4 1 4 4 4 6 3 3 7 3 6 5 4 5 3
3 14 11 4 16 8 14 13 9 11 16 25 22 21 18 16 10 9 17 18 16 12 8 7 7 6 7 4 4 4 4 3 2 4 4 3 5 4 5 2 3 4 2 5 3 4 7 6 6
7 8 15 16 22 16 8 13 7 9 26 21 17 11 19 16 13 15 22 18 14 12 7 8 8 6 5 6 3 4 5 4 4 4 2 5 7 4 4 2 2 1 6 4 5 6 4 3 3
1 6 14 14 7 14 18 9 7 4 23 22 18 12 12 15 11 21 17 19 14 12 7 8 7 4 2 6 6 7 4 4 4 3 2 6 6 7 6 4 4 3 5 6 7 3 3 4 1
6 6 9 10 6 7 17 10 9 15 20 21 18 14 13 12 19 15 13 18 15 12 8 8 7 2 6 6 5 2 4 5 6 5 6 5 4 6 5 4 3 7 9 8 4 2 3 4 3
1 1 4 7 3 10 9 5 12 17 17 18 16 13 14 16 15 15 17 16 16 13 10 8 7 4 5 5 4 2 3 4 5 5 4 3 5 7 4 4 4 2 4 3 3 3 3 3 4
2 2 4 7 5 8 1 5 7 19 19 17 14 9 13 13 15 11 18 15 18 13 10 6 7 7 6 5 4 4 5 2 4 5 4 5 6 3 3 1 3 4 3 4 3 1 2 2 2
6 5 2 9 8 17 1 4 4 9 11 15 15 10 14 17 13 14 16 17 14 11 11 12 6 7 7 4 4 3 3 3 3 4 4 4 4 6 2 5 1 4 3 4 4 3 3 2 2
8 9 9 10 9 8 12 4 0 9 9 9 10 7 9 15 13 15 18 17 13 9 10 10 9 7 4 2 3 3 2 2 2 3 5 3 1 3 4 1 2 3 5 4 3 3 4 3 2
10 5 7 12 11 8 9 5 3 4 3 2 7 7 1 14 14 16 19 15 13 9 15 9 8 8 5 3 1 3 2 2 1 2 2 3 3 1 4 6 4 1 3 6 6 4 4 2 2
9 4 8 8 8 1 2 5 2 0 2 3 5 4 3 2 13 19 19 17 14 12 13 10 8 8 5 6 3 3 3 3 3 3 2 3 1 3 4 5 4 2 1 3 4 4 4 3 3
5 9 12 13 9 3 6 1 3 6 9 6 6 7 2 3 7 15 19 19 18 14 12 14 10 8 6 7 4 4 4 3 3 2 1 3 5 3 5 5 4 1 2 4 3 6 2 3 4
7 17 7 8 9 6 1 4 4 4 11 15 15 12 4 6 3 14 13 17 16 16 13 12 10 8 6 6 6 4 3 3 2 3 3 2 6 5 3 6 5 2 0 2 3 5 5 2 3
25 19 11 4 2 4 10 6 7 15 26 28 16 12 9 2 3 5 8 13 16 15 13 12 12 9 8 7 7 7 6 7 4 2 2 1 3 3 5 1 6 7 3 3 2 4 5 4 3
21 13 4 1 2 5 5 6 12 18 16 17 19 13 10 5 2 7 9 5 17 16 14 13 14 8 8 8 7 7 6 7 7 6 4 3 0 2 4 6 2 2 4 4 4 3 2 4 3
18 13 8 6 5 2 3 2 9 15 19 14 17 13 8 9 6 3 16 9 3 11 15 11 11 9 10 8 8 7 7 4 3 4 4 3 3 3 2 2 4 3 4 4 4 1 2 3 2
8 4 10 9 1 5 2 2 12 4 5 12 13 13 14 9 7 6 5 8 8 9 12 13 9 8 9 8 7 7 6 6 5 6 6 3 3 2 4 5 3 5 5 6 4 2 2 1 3
6 5 3 3 5 4 6 4 6 4 4 11 13 15 19 15 13 9 6 9 13 4 6 8 8 9 10 8 7 6 6 4 5 7 9 7 5 4 5 3 4 6 6 5 4 2 2 1 3
3 3 5 5 6 6 6 5 10 11 4 8 12 16 17 16 21 9 7 9 16 15 11 9 5 6 7 7 8 6 6 7 5 5 7 10 6 5 4 5 6 5 5 3 3 3 2 1 4
6 8 7 5 4 4 6 3 4 15 24 19 15 17 20 22 18 13 13 11 9 7 8 7 6 6 5 6 9 8 6 3 3 6 6 6 6 7 7 6 5 3 2 2 4 5 3 3 5
Wind_Direction
275 241 201 349 339 176 107 80 88 89 61 77 81 79 82 58 110 122 123 133 133 130 134 135 130 128 123 117 115 109 108 103 100 98 96 101 101 100 99 101 100 98 96 100 97 94 92 95 87
275 288 80 345 342 326 87 81 87 89 87 74 80 80 69 76 90 111 126 140 132 135 127 130 131 127 128 121 114 112 111 105 105 105 111 107 107 109 105 106 104 105 104 98 102 93 95 95 90
270 228 98 139 286 246 126 96 96 91 96 87 81 79 97 118 80 108 116 121 110 113 119 131 131 135 128 120 118 117 117 117 115 112 112 108 106 105 105 106 103 103 95 95 98 99 91 91 86
257 252 70 134 265 270 104 108 92 92 86 97 97 71 88 107 102 119 120 116 113 117 124 130 130 128 130 124 123 125 122 123 119 115 116 114 111 114 114 115 109 112 118 115 108 103 99 93 68
239 317 44 305 249 127 112 117 100 109 119 100 96 102 92 96 112 116 99 115 113 119 129 122 125 126 121 123 127 128 130 125 124 128 128 124 119 113 115 115 111 106 118 118 109 113 106 85 70
351 66 17 248 258 104 114 134 107 95 116 104 107 106 113 135 115 107 70 129 124 123 129 123 124 123 130 130 131 131 127 128 131 134 130 124 116 105 105 112 113 103 105 109 116 119 115 101 105
117 76 228 277 124 120 138 143 121 138 128 116 122 116 148 97 121 115 121 139 131 135 131 126 124 128 126 131 131 129 130 131 129 127 129 122 113 110 109 105 104 104 107 118 130 140 142 134 71
96 125 135 306 148 145 168 138 133 140 133 130 124 139 154 136 132 137 145 165 137 138 138 134 135 129 127 135 130 130 132 127 125 131 131 130 119 119 111 115 121 125 128 128 130 138 146 184 230
122 78 124 262 176 153 119 202 147 148 141 137 121 136 154 134 144 146 154 128 121 127 138 150 142 141 128 132 141 129 130 130 136 136 142 140 135 129 116 131 128 124 130 136 139 173 203 233 251
154 121 185 263 298 283 169 127 131 136 156 113 123 132 162 152 147 153 142 127 133 130 139 147 139 149 152 140 140 135 139 154 139 143 149 158 135 126 117 126 78 65 61 73 166 206 206 243 258
143 136 245 236 268 280 202 134 124 138 146 137 143 154 165 139 163 155 131 137 142 145 152 160 153 160 149 150 154 148 160 140 128 164 150 227 110 94 76 63 19 314 290 127 296 241 205 272 267
226 160 138 265 245 269 164 147 158 180 161 142 154 160 146 143 152 142 119 141 134 132 134 118 141 140 142 157 145 154 124 139 182 172 168 111 82 57 75 167 202 298 286 325 210 286 260 261 239
211 192 160 189 237 239 185 154 140 123 124 134 138 140 151 153 163 124 128 136 136 139 135 121 96 111 169 170 127 141 174 187 116 65 159 99 133 117 160 258 23 222 288 275 269 237 218 251 197
170 244 129 161 210 251 207 127 101 145 129 135 145 161 170 155 128 122 131 135 128 120 112 117 91 72 125 136 137 154 186 163 126 126 104 99 118 141 164 189 215 252 256 246 247 191 250 270 206
231 214 113 142 202 277 99 128 131 129 141 145 162 174 154 142 130 128 130 123 130 134 131 114 114 100 91 127 103 87 178 139 132 171 114 64 119 117 110 192 237 226 231 223 245 305 305 288 274
157 37 148 131 156 309 191 105 156 142 161 153 168 176 152 133 125 127 127 126 132 135 141 146 141 137 99 78 58 63 93 127 130 115 117 164 125 122 183 238 266 252 320 142 246 230 252 236 191
99 221 197 123 54 302 30 134 108 181 158 163 172 161 133 126 131 124 135 125 141 148 138 155 141 153 124 99 56 89 74 87 138 129 141 134 124 118 211 333 351 350 43 330 278 266 163 163 241
191 195 223 62 36 341 318 146 18 18 170 171 170 157 140 133 141 137 130 128 137 131 137 141 148 145 95 85 82 59 100 60 107 124 134 122 155 159 21 53 51 10 354 343 351 15 12 317 215
115 119 109 101 50 14 329 122 311 22 45 3 173 100 151 147 147 144 130 133 137 132 138 132 145 135 141 90 97 105 155 111 144 139 141 130 108 99 77 147 67 9 344 324 316 10 354 338 246
90 117 78 74 29 38 324 246 346 9 2 22 11 28 177 146 150 136 134 139 147 136 146 145 143 151 143 118 100 108 105 74 167 159 159 131 154 119 80 106 57 357 331 15 2 22 339 328 330
112 101 137 128 163 174 202 250 290 90 208 284 317 287 348 5 148 148 149 152 151 143 144 154 151 154 138 113 96 73 54 44 40 19 5 352 230 159 103 97 104 103 52 30 346 318 41 341 316
99 108 138 160 169 119 34 215 259 254 269 220 232 232 249 314 219 157 158 161 160 165 156 151 161 158 161 151 156 151 158 148 208 137 220 309 333 255 143 149 134 61 52 8 340 317 46 48 8
136 132 145 125 74 111 257 265 239 162 242 240 204 206 197 260 196 171 169 159 167 160 168 161 154 152 173 163 171 159 169 130 140 150 226 300 309 310 207 147 156 124 312 1 287 289 3 27 38
126 113 85 75 61 86 197 219 190 199 206 212 212 194 189 200 253 262 181 160 166 162 159 164 159 171 166 168 160 166 193 142 131 147 147 285 252 10 352 245 136 162 165 262 264 334 27 356 58
120 126 125 252 36 235 192 199 243 223 223 218 206 209 179 157 236 249 208 134 166 164 159 157 167 165 162 159 160 181 159 156 168 185 152 155 55 31 343 335 149 176 166 221 295 322 16 326 39
162 161 152 196 164 358 82 229 256 266 206 200 202 192 171 168 197 245 216 127 99 162 161 159 165 153 158 167 176 173 173 168 176 154 130 168 142 177 41 271 305 247 229 213 217 271 320 57 16
223 195 181 101 131 98 111 236 293 59 117 173 174 164 185 189 207 182 158 126 105 6 158 149 165 156 160 176 170 181 172 148 141 121 133 148 156 267 158 180 302 310 230 228 206 222 346 295 307
174 168 359 37 145 141 103 5 270 286 173 177 174 202 194 181 212 158 156 129 117 322 251 129 158 183 170 171 167 153 149 149 152 133 149 163 184 213 207 158 284 285 259 232 192 124 108 271 269
291 237 237 138 152 156 135 209 198 205 239 225 206 197 198 197 203 156 169 133 130 212 252 171 154 197 187 174 155 158 172 183 184 152 142 168 159 210 242 227 230 281 249 215 202 223 220 275 268
199 227 220 135 250 186 160 158 197 176 194 194 206 203 205 203 189 156 145 158 134 201 218 260 168 223 167 144 137 147 183 159 217 145 137 138 194 180 198 212 221 243 297 244 226 225 245 218 237